Location: Unspecified
(0.0000°N, 0.0000°E)
Time: 14:26:56
(UTC+00:00)

Quakesat - Pass Details

Date: 31 July 2021
Orbit: 811 x 823 km, 98.7° (Epoch: 17 September)

Event Time Altitude Azimuth Distance (km) Brightness Sun altitude
Rises 18:48:48 0° 191° (SSW) 3,329 ? -10.1°
Reaches altitude 10° 18:51:34 10° 205° (SSW) 2,396 ? -10.7°
Maximum altitude 18:55:44 24° 257° (WSW) 1,630 ? -11.7°
Drops below altitude 10° 18:59:54 10° 309° (NW) 2,392 ? -12.7°
Sets 19:02:40 0° 323° (NW) 3,323 ? -13.4°
